TimeEDT,TemperatureF,Dew PointF,Humidity,Sea Level PressureIn,VisibilityMPH,Wind Direction,Wind SpeedMPH,Gust SpeedMPH,PrecipitationIn,Events,Conditions,WindDirDegrees,DateUTC
12:28 AM,55.4,53.6,94,29.85,3.0,South,8.1,-,0.03,Rain,Light Rain,190,2013-05-11 04:28:00
12:52 AM,55.4,55.4,100,29.84,2.0,SSW,10.4,-,0.05,Rain,Rain,200,2013-05-11 04:52:00
12:54 AM,55.9,55.0,97,29.83,2.0,SSW,9.2,-,0.05,Rain,Rain,200,2013-05-11 04:54:00
1:07 AM,55.4,55.4,100,29.84,5.0,SSW,10.4,-,0.01,Rain,Light Rain,200,2013-05-11 05:07:00
1:23 AM,55.4,55.4,100,29.84,6.0,SSW,8.1,-,0.01,,Overcast,200,2013-05-11 05:23:00
1:54 AM,55.9,55.0,97,29.81,7.0,SW,9.2,-,0.01,,Overcast,220,2013-05-11 05:54:00
2:02 AM,55.4,55.4,100,29.82,8.0,SSW,10.4,-,N/A,,Overcast,210,2013-05-11 06:02:00
2:30 AM,55.4,55.4,100,29.82,5.0,SW,9.2,-,0.00,,Overcast,220,2013-05-11 06:30:00
2:54 AM,57.0,55.0,93,29.79,10.0,SW,10.4,-,0.00,,Overcast,230,2013-05-11 06:54:00
3:35 AM,57.2,55.4,94,29.81,2.5,SW,8.1,-,0.02,Rain,Heavy Rain,220,2013-05-11 07:35:00
3:43 AM,57.2,55.4,94,29.81,2.0,SW,9.2,-,0.05,Rain,Rain,220,2013-05-11 07:43:00
3:54 AM,57.0,55.0,93,29.78,2.5,SW,10.4,-,0.08,Rain,Light Rain,220,2013-05-11 07:54:00
4:01 AM,57.2,55.4,94,29.80,4.0,SSW,8.1,-,0.00,Rain,Light Rain,210,2013-05-11 08:01:00
4:09 AM,57.2,55.4,94,29.80,1.8,WSW,6.9,-,0.01,Rain,Rain,240,2013-05-11 08:09:00
4:16 AM,55.4,55.4,100,29.80,1.0,WSW,6.9,-,0.03,Rain,Rain,240,2013-05-11 08:16:00
4:24 AM,55.4,55.4,100,29.80,0.5,WSW,8.1,-,0.05,Fog-Rain,Rain,250,2013-05-11 08:24:00
4:46 AM,55.4,55.4,100,29.80,2.0,WSW,8.1,-,0.09,Rain,Rain,250,2013-05-11 08:46:00
4:54 AM,55.9,55.9,100,29.78,1.8,WSW,10.4,-,0.10,Rain,Light Rain,250,2013-05-11 08:54:00
5:08 AM,55.4,55.4,100,29.80,2.5,West,11.5,-,0.02,Rain,Light Rain,260,2013-05-11 09:08:00
5:16 AM,55.4,55.4,100,29.80,6.0,WSW,10.4,-,0.02,Rain,Light Rain,250,2013-05-11 09:16:00
5:22 AM,55.4,55.4,100,29.80,1.8,WSW,9.2,-,0.02,,Overcast,250,2013-05-11 09:22:00
5:36 AM,55.4,55.4,100,29.80,4.0,WSW,11.5,-,0.02,,Overcast,240,2013-05-11 09:36:00
5:54 AM,55.9,55.0,97,29.78,7.0,West,9.2,-,0.02,,Overcast,260,2013-05-11 09:54:00
6:15 AM,55.4,55.4,100,29.81,7.0,WSW,8.1,-,N/A,,Overcast,250,2013-05-11 10:15:00
6:32 AM,55.4,55.4,100,29.81,8.0,West,10.4,-,N/A,,Overcast,260,2013-05-11 10:32:00
6:54 AM,55.9,55.0,97,29.80,7.0,WSW,8.1,-,N/A,,Overcast,240,2013-05-11 10:54:00
7:27 AM,55.4,53.6,94,29.81,9.0,SW,9.2,-,N/A,,Overcast,230,2013-05-11 11:27:00
7:46 AM,55.4,53.6,94,29.81,7.0,SW,8.1,-,N/A,,Overcast,230,2013-05-11 11:46:00
7:54 AM,55.9,54.0,93,29.80,6.0,SW,9.2,-,0.00,Rain,Light Rain,230,2013-05-11 11:54:00
8:54 AM,57.0,55.0,93,29.79,7.0,SW,11.5,-,0.00,,Overcast,230,2013-05-11 12:54:00
9:02 AM,57.2,55.4,94,29.80,7.0,SW,10.4,-,N/A,,Overcast,230,2013-05-11 13:02:00
9:54 AM,57.0,55.0,93,29.78,7.0,SSW,6.9,-,N/A,,Overcast,210,2013-05-11 13:54:00
10:03 AM,57.2,55.4,94,29.79,7.0,SSW,6.9,-,N/A,,Overcast,210,2013-05-11 14:03:00
10:37 AM,53.6,53.6,100,29.80,1.8,NW,6.9,17.3,0.05,Rain,Heavy Rain,320,2013-05-11 14:37:00
10:54 AM,53.1,52.0,96,29.79,2.0,NNW,8.1,-,0.12,Rain,Rain,330,2013-05-11 14:54:00
11:14 AM,53.6,51.8,94,29.81,3.0,WNW,10.4,-,0.05,Rain,Light Rain,290,2013-05-11 15:14:00
11:43 AM,53.6,51.8,94,29.81,7.0,NW,10.4,-,0.06,Rain,Light Rain,310,2013-05-11 15:43:00
11:54 AM,52.0,50.0,93,29.81,4.0,NW,9.2,-,0.06,Rain,Light Rain,310,2013-05-11 15:54:00
12:10 PM,53.6,51.8,94,29.81,7.0,WNW,10.4,-,0.00,,Overcast,300,2013-05-11 16:10:00
12:31 PM,53.6,51.8,94,29.80,5.0,West,9.2,-,0.00,,Overcast,280,2013-05-11 16:31:00
12:50 PM,53.6,51.8,94,29.80,2.0,WNW,11.5,-,0.00,,Overcast,290,2013-05-11 16:50:00
12:54 PM,53.1,52.0,96,29.80,2.0,West,8.1,-,0.00,,Overcast,280,2013-05-11 16:54:00
1:04 PM,53.6,51.8,94,29.79,3.0,WNW,6.9,-,N/A,,Overcast,290,2013-05-11 17:04:00
1:30 PM,53.6,51.8,94,29.80,2.5,West,11.5,-,N/A,,Overcast,280,2013-05-11 17:30:00
1:37 PM,53.6,51.8,94,29.81,3.0,West,11.5,16.1,N/A,,Overcast,280,2013-05-11 17:37:00
1:45 PM,53.6,51.8,94,29.81,1.8,West,9.2,-,0.00,Rain,Light Rain,270,2013-05-11 17:45:00
1:54 PM,52.0,51.1,97,29.81,1.0,West,9.2,-,0.00,Rain,Light Rain,280,2013-05-11 17:54:00
2:02 PM,51.8,51.8,100,29.81,0.8,West,9.2,-,0.00,Rain,Light Rain,280,2013-05-11 18:02:00
2:23 PM,53.6,51.8,94,29.81,1.5,West,10.4,-,0.00,,Overcast,260,2013-05-11 18:23:00
2:54 PM,52.0,51.1,97,29.81,1.2,West,8.1,-,0.00,,Overcast,280,2013-05-11 18:54:00
3:04 PM,51.8,51.8,100,29.81,0.5,West,9.2,-,N/A,Fog,Fog,280,2013-05-11 19:04:00
3:42 PM,51.8,50.0,94,29.81,1.2,West,9.2,-,0.01,Rain,Light Rain,270,2013-05-11 19:42:00
3:54 PM,51.1,50.0,96,29.81,2.0,West,9.2,-,0.01,,Overcast,270,2013-05-11 19:54:00
4:08 PM,51.8,50.0,94,29.80,3.0,WSW,9.2,-,N/A,,Overcast,250,2013-05-11 20:08:00
4:19 PM,51.8,50.0,94,29.80,2.0,West,9.2,-,0.00,Rain,Light Rain,270,2013-05-11 20:19:00
4:26 PM,51.8,50.0,94,29.80,1.2,West,10.4,-,0.00,Rain,Light Rain,260,2013-05-11 20:26:00
4:32 PM,51.8,50.0,94,29.80,0.2,West,8.1,-,0.00,Fog-Rain,Light Rain,280,2013-05-11 20:32:00
4:43 PM,51.8,50.0,94,29.80,1.0,West,9.2,17.3,0.00,,Overcast,270,2013-05-11 20:43:00
4:52 PM,50.0,48.2,94,29.80,2.0,West,10.4,-,0.00,,Overcast,260,2013-05-11 20:52:00
5:31 PM,50.0,48.2,94,29.80,2.0,West,11.5,-,0.00,Rain,Light Rain,280,2013-05-11 21:31:00
5:45 PM,50.0,48.2,94,29.80,1.2,West,9.2,-,0.00,,Overcast,260,2013-05-11 21:45:00
5:54 PM,50.0,48.9,96,29.80,1.0,West,8.1,-,0.00,,Overcast,260,2013-05-11 21:54:00
6:05 PM,50.0,48.2,94,29.80,2.0,West,9.2,-,N/A,,Overcast,260,2013-05-11 22:05:00
6:18 PM,50.0,48.2,94,29.80,3.0,West,9.2,-,0.00,Rain,Light Rain,270,2013-05-11 22:18:00
6:43 PM,50.0,48.2,94,29.80,4.0,West,10.4,-,0.00,,Overcast,260,2013-05-11 22:43:00
6:54 PM,50.0,48.9,96,29.80,4.0,West,10.4,-,0.00,,Overcast,260,2013-05-11 22:54:00
6:59 PM,50.0,48.2,94,29.80,5.0,West,11.5,-,N/A,,Overcast,270,2013-05-11 22:59:00
7:14 PM,50.0,48.2,94,29.80,7.0,West,10.4,-,N/A,,Overcast,260,2013-05-11 23:14:00
7:54 PM,50.0,48.0,93,29.81,9.0,West,9.2,-,N/A,,Overcast,260,2013-05-11 23:54:00
8:21 PM,50.0,48.2,94,29.81,10.0,West,9.2,-,N/A,,Overcast,260,2013-05-12 00:21:00
8:33 PM,50.0,48.2,94,29.81,10.0,West,10.4,-,N/A,,Overcast,260,2013-05-12 00:33:00
8:42 PM,50.0,48.2,94,29.81,10.0,West,9.2,-,N/A,,Overcast,270,2013-05-12 00:42:00
8:54 PM,50.0,48.0,93,29.81,10.0,West,9.2,-,N/A,,Overcast,270,2013-05-12 00:54:00
9:01 PM,50.0,48.2,94,29.81,10.0,West,11.5,-,N/A,,Overcast,270,2013-05-12 01:01:00
9:19 PM,50.0,46.4,87,29.81,10.0,West,11.5,17.3,N/A,,Overcast,270,2013-05-12 01:19:00
9:45 PM,50.0,48.2,94,29.81,10.0,West,8.1,-,N/A,,Overcast,280,2013-05-12 01:45:00
9:54 PM,50.0,48.0,93,29.81,10.0,WNW,8.1,-,N/A,,Overcast,290,2013-05-12 01:54:00
10:28 PM,50.0,46.4,87,29.81,9.0,West,9.2,-,N/A,,Overcast,270,2013-05-12 02:28:00
10:54 PM,48.9,46.0,90,29.83,10.0,West,11.5,-,N/A,,Overcast,280,2013-05-12 02:54:00
11:54 PM,48.0,44.1,86,29.81,10.0,West,15.0,21.9,N/A,,Mostly Cloudy,280,2013-05-12 03:54:00